{"data":{"norad_id":65430,"intl_designator":"2025-192AC","name":"STARLINK-35025","alt_names":[],"object_type":"PAYLOAD","status":"ACTIVE","operator":null,"country":"US","launch_date":"2025-08-31","launch_site_code":"AFETR","launch_vehicle":null,"mission":null,"orbit_class":"UNKNOWN","rcs_meters":null,"size_class":null,"mass_kg":null,"dimensions":null,"purposes":["comms"],"wikipedia_slug":null,"has_3d_model":false,"image_url":null,"decayed_at":null,"tle_current":{"epoch":"2026-09-20T21:41:11.708736Z","epoch_age_seconds":80046,"freshness":"FRESH","line1":"1 65430U 25192AC  26263.90360774  .00017925  00000+0  54018-3 0  9996","line2":"2 65430  53.1572  41.9629 0001513  42.5116 317.6004 15.34411569 59322","mean_motion":15.34411569,"eccentricity":0.0001513,"inclination_deg":53.1572,"raan_deg":41.9629,"arg_perigee_deg":42.5116,"mean_anomaly_deg":317.6004,"bstar":0.00054018,"rev_number":5932,"period_min":93.847050497571,"perigee_km":461.63384099125,"apogee_km":463.70386884294,"semimajor_km":6840.8058549171,"source":"CELESTRAK","updated_at":"2026-09-21T09:00:35.607783Z"}}}